Location: Freemans Gardens
(41.6414°N, 83.6077°W)
Time: 02:56:35
(UTC+00:00)

Cosmos 1745 Rocket - Visible Passes

Search period start: 08 March 2021 00:00
Search period end: 18 March 2021 00:00
Orbit: 952 x 998 km, 83.0° (Epoch: 07 March)

Date Brightness Start Highest point End Pass type
(mag) Time Alt. Az. Time Alt. Az. Time Alt. Az.
08 Mar 5.6 08:09:43 10° NNE 08:15:09 29° ENE 08:16:10 28° E visible
08 Mar 4.3 09:54:45 10° NNW 10:00:39 43° W 10:00:45 43° W visible
09 Mar 4.7 08:34:37 10° N 08:40:19 51° ENE 08:40:19 51° ENE visible
09 Mar 5.1 10:20:49 10° NNW 10:24:54 24° WNW 10:24:54 24° WNW visible
10 Mar 6.5 07:16:40 10° NNE 07:19:57 14° ENE 07:20:08 14° ENE visible
10 Mar 4.3 08:59:51 10° N 09:04:45 57° N 09:04:45 57° N visible
10 Mar 5.7 10:47:56 10° NW 10:49:21 12° WNW 10:49:21 12° WNW visible
11 Mar 5.9 07:40:40 10° NNE 07:44:44 24° NE 07:44:44 24° NE visible
11 Mar 4.8 09:25:24 10° NNW 09:29:22 37° NW 09:29:22 37° NW visible
12 Mar 5.4 08:05:27 10° N 08:09:28 34° NNE 08:09:28 34° NNE visible
12 Mar 5.4 09:51:20 10° NNW 09:54:06 22° NW 09:54:06 22° NW visible
13 Mar 6.6 06:48:10 10° NE 06:49:39 12° NE 06:49:39 12° NE visible
13 Mar 5.1 08:30:37 10° N 08:34:17 37° N 08:34:17 37° N visible
13 Mar 5.9 10:18:01 10° NW 10:18:55 12° NW 10:18:55 12° NW visible
14 Mar 6.2 07:11:41 10° NNE 07:14:32 19° NE 07:14:32 19° NE visible
14 Mar 5.2 08:56:05 10° NNW 08:59:10 30° NNW 08:59:10 30° NNW visible
15 Mar 5.8 07:36:20 10° N 07:39:27 26° NNE 07:39:27 26° NNE visible
15 Mar 5.6 09:21:54 10° NNW 09:24:06 20° NW 09:24:06 20° NW visible
16 Mar 5.5 08:01:25 10° N 08:04:25 30° N 08:04:25 30° N visible
16 Mar 6.0 09:48:17 10° NW 09:49:04 12° NW 09:49:04 12° NW visible
17 Mar 6.4 06:42:46 10° NNE 06:44:47 16° NE 06:44:47 16° NE visible
17 Mar 5.5 08:26:48 10° NNW 08:29:26 27° NNW 08:29:26 27° NNW visible
